Weather History for KAEL - April, 2014

Change the Weather History Date:

Sunday, April 20, 2014

  Actual Average Record
Temperature  
Mean Temperature 61 °F -  
Max Temperature 69 °F 57 °F 75 °F (2001)
Min Temperature 53 °F 37 °F 26 °F (2013)
Degree Days  
Heating Degree Days 4    
Growing Degree Days 11 (Base 50)    
Moisture  
Dew Point 53 °F    
Average Humidity 75    
Maximum Humidity 94    
Minimum Humidity 49    
Precipitation  
Precipitation 0.10 in - - ()
Sea Level Pressure  
Sea Level Pressure 30.00 in    
Wind  
Wind Speed 7 mph (SSE)    
Max Wind Speed 12 mph    
Max Gust Speed 18 mph    
Visibility 9 miles    
Events Rain , Thunderstorm    
Averages and records for this station are not official NWS values.
T = Trace of Precipitation, MM = Missing Value Source: NWS Daily Summary

Daily Weather History Graph

Daily Weather History Graph

Search for Another Location

Airport or City:

Trip Planner

Search our weather history database for the weather conditions in past years. The results will help you decide how hot, cold, wet, or windy it might be!

Date:

Astronomy

Apr. 20, 2014 Rise Set
Actual Time 6:22 AM CDT 8:03 PM CDT
Civil Twilight 5:52 AM CDT 8:33 PM CDT
Nautical Twilight 5:15 AM CDT 9:10 PM CDT
Astronomical Twilight 4:35 AM CDT 9:50 PM CDT
Moon 12:47 AM CDT (4/20) 10:39 AM CDT (4/20)
Length of Visible Light 14h 41m
Length of Day
13h 40m
Waning Gibbous, 68% of the Moon is Illuminated
Apr 20
Waning Gibbous
Apr 22
Last Quarter
Apr 29
New
May 6
First Quarter
May 14
Full

Hourly Weather History & Observations

Time (CDT) Temp. Dew Point Humidity Pressure Visibility Wind Dir Wind Speed Gust Speed Precip Events Conditions
12:08 AM 64.4 °F 44.6 °F 49% 30.01 in 10.0 mi South 10.4 mph - N/A   Mostly Cloudy
12:29 AM 64.4 °F 44.6 °F 49% 30.01 in 10.0 mi South 11.5 mph 16.1 mph N/A   Overcast
12:49 AM 64.4 °F 44.6 °F 49% 30.01 in 10.0 mi SSW 11.5 mph 18.4 mph N/A   Overcast
1:08 AM 64.4 °F 46.4 °F 52% 30.02 in 10.0 mi SSW 6.9 mph - N/A   Overcast
1:29 AM 64.4 °F 46.4 °F 52% 30.02 in 10.0 mi SW 5.8 mph - N/A   Mostly Cloudy
1:49 AM 62.6 °F 46.4 °F 55% 30.02 in 10.0 mi SSW 5.8 mph - N/A   Mostly Cloudy
2:08 AM 62.6 °F 46.4 °F 55% 30.02 in 10.0 mi SW 3.5 mph - N/A   Mostly Cloudy
2:29 AM 60.8 °F 46.4 °F 59% 30.02 in 10.0 mi Calm Calm - N/A   Mostly Cloudy
2:48 AM 60.8 °F 46.4 °F 59% 30.02 in 10.0 mi Calm Calm - N/A   Mostly Cloudy
3:09 AM 60.8 °F 46.4 °F 59% 30.03 in 10.0 mi Calm Calm - N/A Rain Light Rain
3:29 AM 59.0 °F 46.4 °F 63% 30.03 in 10.0 mi Calm Calm - N/A Rain Light Rain
4:09 AM 57.2 °F 50.0 °F 77% 30.02 in 10.0 mi South 6.9 mph - N/A Rain Light Rain
4:28 AM 57.2 °F 51.8 °F 82% 30.02 in 10.0 mi South 6.9 mph - N/A Rain Light Rain
4:49 AM 55.4 °F 51.8 °F 88% 30.02 in 10.0 mi Calm Calm - N/A Rain Light Rain
5:09 AM 55.4 °F 51.8 °F 88% 30.02 in 10.0 mi South 4.6 mph - N/A   Drizzle
5:28 AM 55.4 °F 51.8 °F 88% 30.02 in 10.0 mi Calm Calm - N/A Rain , Thunderstorm Light Thunderstorms and Rain
5:49 AM 55.4 °F 51.8 °F 88% 30.02 in 10.0 mi SE 6.9 mph - N/A   Light Drizzle
6:09 AM 55.4 °F 51.8 °F 88% 30.02 in 10.0 mi SSE 4.6 mph - N/A Thunderstorm Overcast
6:28 AM 53.6 °F 51.8 °F 94% 30.02 in 10.0 mi SSE 6.9 mph - N/A Thunderstorm Overcast
7:09 AM 55.4 °F 48.2 °F 77% 30.03 in 10.0 mi SSE 8.1 mph - N/A   Overcast
7:28 AM 55.4 °F 48.2 °F 77% 30.03 in 10.0 mi SSE 8.1 mph - N/A Thunderstorm Mostly Cloudy
7:49 AM 55.4 °F 48.2 °F 77% 30.03 in 10.0 mi South 10.4 mph - N/A Thunderstorm Thunderstorm
8:09 AM 55.4 °F 50.0 °F 82% 30.03 in 10.0 mi SSE 5.8 mph - N/A   Mostly Cloudy
8:28 AM 55.4 °F 50.0 °F 82% 30.03 in 7.0 mi South 6.9 mph - N/A Rain Light Rain
8:49 AM 55.4 °F 51.8 °F 88% 30.04 in 10.0 mi South 6.9 mph - N/A Thunderstorm Mostly Cloudy
9:09 AM 55.4 °F 51.8 °F 88% 30.04 in 7.0 mi South 5.8 mph - N/A   Overcast
9:28 AM 55.4 °F 51.8 °F 88% 30.04 in 5.0 mi South 6.9 mph - 0.03 in Rain Light Rain
9:49 AM 55.4 °F 51.8 °F 88% 30.05 in 7.0 mi South 4.6 mph - N/A Rain Light Rain
10:08 AM 55.4 °F 51.8 °F 88% 30.05 in 5.0 mi Calm Calm - 0.01 in Rain Rain
10:29 AM 55.4 °F 53.6 °F 94% 30.05 in 7.0 mi Calm Calm - 0.04 in Rain Light Rain
10:49 AM 57.2 °F 55.4 °F 94% 30.04 in 5.0 mi SSE 6.9 mph - N/A   Mostly Cloudy
11:09 AM 57.2 °F 53.6 °F 88% 30.02 in 7.0 mi SE 6.9 mph - N/A   Scattered Clouds
11:29 AM 57.2 °F 53.6 °F 88% 30.02 in 5.0 mi SE 6.9 mph - N/A Rain Light Rain
11:49 AM 57.2 °F 55.4 °F 94% 30.03 in 7.0 mi South 5.8 mph - 0.01 in Rain Light Rain
12:09 PM 57.2 °F 55.4 °F 94% 30.04 in 7.0 mi SSE 9.2 mph - 0.01 in   Clear
12:29 PM 59.0 °F 55.4 °F 88% 30.03 in 7.0 mi SSW 8.1 mph - 0.01 in Thunderstorm Scattered Clouds
12:49 PM 60.8 °F 55.4 °F 82% 30.02 in 7.0 mi SSW 6.9 mph - N/A   Scattered Clouds
1:09 PM 60.8 °F 55.4 °F 82% 30.02 in 7.0 mi SSW 4.6 mph - N/A Thunderstorm Mostly Cloudy
1:29 PM 62.6 °F 55.4 °F 77% 30.02 in 10.0 mi SSW 6.9 mph - N/A   Scattered Clouds
1:49 PM 62.6 °F 55.4 °F 77% 30.01 in 7.0 mi SW 4.6 mph - N/A   Mostly Cloudy
2:09 PM 64.4 °F 55.4 °F 73% 30.01 in 10.0 mi SSW 5.8 mph - N/A   Scattered Clouds
2:29 PM 64.4 °F 55.4 °F 73% 30.00 in 10.0 mi South 5.8 mph - N/A   Scattered Clouds
2:49 PM 66.2 °F 55.4 °F 68% 30.00 in 10.0 mi SSE 8.1 mph - N/A   Scattered Clouds
3:09 PM 69.8 °F 55.4 °F 60% 29.99 in 10.0 mi South 9.2 mph - N/A   Clear
3:29 PM 69.8 °F 55.4 °F 60% 29.99 in 10.0 mi South 5.8 mph - N/A Thunderstorm Scattered Clouds
3:49 PM 69.8 °F 55.4 °F 60% 29.98 in 10.0 mi SW 5.8 mph - N/A   Scattered Clouds
4:09 PM 68.0 °F 55.4 °F 64% 29.97 in 10.0 mi ESE 3.5 mph - N/A   Scattered Clouds
4:29 PM 69.8 °F 55.4 °F 60% 29.97 in 10.0 mi East 5.8 mph - N/A   Clear
4:49 PM 69.8 °F 57.2 °F 64% 29.96 in 10.0 mi East 4.6 mph - N/A   Clear
5:09 PM 69.8 °F 57.2 °F 64% 29.96 in 10.0 mi ESE 9.2 mph - N/A   Clear
5:29 PM 69.8 °F 57.2 °F 64% 29.96 in 10.0 mi East 8.1 mph - N/A   Clear
5:49 PM 69.8 °F 57.2 °F 64% 29.95 in 10.0 mi East 9.2 mph - N/A Thunderstorm Clear
6:09 PM 68.0 °F 57.2 °F 68% 29.95 in 10.0 mi East 6.9 mph - N/A   Clear
6:29 PM 68.0 °F 57.2 °F 68% 29.94 in 10.0 mi East 8.1 mph - N/A   Scattered Clouds
6:49 PM 68.0 °F 57.2 °F 68% 29.93 in 10.0 mi ENE 10.4 mph - N/A   Clear
7:08 PM 66.2 °F 55.4 °F 68% 29.94 in 10.0 mi East 9.2 mph - N/A   Clear
7:29 PM 66.2 °F 55.4 °F 68% 29.93 in 10.0 mi ESE 6.9 mph - N/A   Clear
7:49 PM 64.4 °F 55.4 °F 73% 29.94 in 10.0 mi ESE 8.1 mph - N/A   Clear
8:08 PM 64.4 °F 55.4 °F 73% 29.94 in 10.0 mi East 5.8 mph - N/A   Clear
8:29 PM 62.6 °F 55.4 °F 77% 29.94 in 10.0 mi East 4.6 mph - N/A   Clear
8:49 PM 60.8 °F 55.4 °F 82% 29.93 in 10.0 mi East 5.8 mph - N/A   Clear
9:08 PM 60.8 °F 55.4 °F 82% 29.93 in 10.0 mi East 6.9 mph - N/A Thunderstorm Thunderstorm
9:29 PM 60.8 °F 55.4 °F 82% 29.94 in 10.0 mi East 9.2 mph - N/A   Clear
9:49 PM 60.8 °F 55.4 °F 82% 29.93 in 10.0 mi East 9.2 mph - N/A   Clear
10:09 PM 60.8 °F 55.4 °F 82% 29.95 in 10.0 mi SE 9.2 mph - N/A Thunderstorm Scattered Clouds
10:29 PM 60.8 °F 55.4 °F 82% 29.94 in 10.0 mi East 6.9 mph - N/A Thunderstorm Mostly Cloudy
10:49 PM 60.8 °F 55.4 °F 82% 29.94 in 10.0 mi ESE 9.2 mph - N/A   Mostly Cloudy
11:09 PM 60.8 °F 55.4 °F 82% 29.94 in 10.0 mi ESE 5.8 mph - N/A Thunderstorm Mostly Cloudy
11:28 PM 59.0 °F 55.4 °F 88% 29.94 in 7.0 mi ESE 11.5 mph - 0.01 in Rain , Thunderstorm Light Thunderstorms and Rain
11:49 PM 59.0 °F 57.2 °F 94% 29.95 in 10.0 mi ESE 6.9 mph - N/A Rain , Thunderstorm Light Thunderstorms and Rain